Time,TemperatureF,DewpointF,PressureIn,WindDirection,WindDirectionDegrees,WindSpeedMPH,WindSpeedGustMPH,Humidity,HourlyPrecipIn,Conditions,Clouds,dailyrainin,SolarRadiationWatts/m^2,SoftwareType,DateUTC
2013-11-03 00:11:00,25.0,24.0,-100.00,ESE,114,0.0,0.0,95,0.00,,,0.03,0.000000,,2013-11-03 08:11:00,
2013-11-03 00:21:00,25.0,24.0,-100.00,ESE,114,0.0,0.0,95,0.00,,,0.03,0.000000,,2013-11-03 08:21:00,
2013-11-03 00:32:00,25.0,24.0,-100.00,ESE,114,0.0,0.0,95,0.00,,,0.03,0.000000,,2013-11-03 08:32:00,
2013-11-03 00:42:00,25.0,24.0,-100.00,ESE,114,0.0,0.0,95,0.00,,,0.03,0.000000,,2013-11-03 08:42:00,
2013-11-03 01:11:00,26.0,24.0,-100.00,ESE,112,0.0,0.0,95,0.00,,,0.03,0.000000,,2013-11-03 09:11:00,
2013-11-03 01:21:00,26.0,24.0,-100.00,ESE,112,0.0,0.0,95,0.00,,,0.03,0.000000,,2013-11-03 09:21:00,
2013-11-03 01:32:00,26.0,24.0,-100.00,ESE,112,0.0,0.0,95,0.00,,,0.03,0.000000,,2013-11-03 09:32:00,
2013-11-03 01:42:00,26.0,24.0,-100.00,ESE,112,0.0,0.0,95,0.00,,,0.03,0.000000,,2013-11-03 09:42:00,
2013-11-03 01:03:00,-999.0,-99.9,-100.00,ESE,110,0.0,-999.0,-999,0.00,,,0.03,,,2013-11-03 10:03:00,
2013-11-03 01:13:00,-999.0,-99.9,-100.00,ESE,110,0.0,-999.0,-999,0.00,,,0.03,,,2013-11-03 10:13:00,
2013-11-03 01:23:00,-999.0,-99.9,-100.00,ESE,110,0.0,-999.0,-999,0.00,,,0.03,,,2013-11-03 10:23:00,
2013-11-03 01:33:00,-999.0,-99.9,-100.00,ESE,110,0.0,-999.0,-999,0.00,,,0.03,,,2013-11-03 10:33:00,
2013-11-03 01:42:00,-999.0,-99.9,-100.00,ESE,110,0.0,-999.0,-999,0.00,,,0.03,,,2013-11-03 10:42:00,
2013-11-03 01:43:00,26.0,25.0,-100.00,ESE,109,0.0,0.0,95,0.02,,,0.05,0.000000,,2013-11-03 10:43:00,
2013-11-03 02:12:00,26.0,25.0,-100.00,ESE,109,0.0,0.0,95,0.02,,,0.05,0.000000,,2013-11-03 11:12:00,
2013-11-03 02:22:00,26.0,25.0,-100.00,ESE,109,0.0,0.0,95,0.02,,,0.05,0.000000,,2013-11-03 11:22:00,
2013-11-03 02:33:00,26.0,25.0,-100.00,ESE,109,0.0,0.0,95,0.02,,,0.05,0.000000,,2013-11-03 11:33:00,
2013-11-03 03:12:00,26.0,25.0,-100.00,ESE,107,0.0,0.0,95,0.00,,,0.05,0.000000,,2013-11-03 12:12:00,
2013-11-03 03:21:00,26.0,25.0,-100.00,ESE,107,0.0,0.0,95,0.00,,,0.05,0.000000,,2013-11-03 12:21:00,
2013-11-03 03:31:00,26.0,25.0,-100.00,ESE,107,0.0,0.0,95,0.00,,,0.05,0.000000,,2013-11-03 12:31:00,
2013-11-03 03:41:00,26.0,25.0,-100.00,ESE,107,0.0,0.0,95,0.00,,,0.05,0.000000,,2013-11-03 12:41:00,
2013-11-03 04:11:00,26.0,25.0,-100.00,ESE,112,0.0,0.0,95,0.00,,,0.05,0.000000,,2013-11-03 13:11:00,
2013-11-03 04:21:00,26.0,25.0,-100.00,ESE,112,0.0,0.0,95,0.00,,,0.05,0.000000,,2013-11-03 13:21:00,
2013-11-03 04:31:00,26.0,25.0,-100.00,ESE,112,0.0,0.0,95,0.00,,,0.05,0.000000,,2013-11-03 13:31:00,
2013-11-03 04:42:00,26.0,25.0,-100.00,ESE,112,0.0,0.0,95,0.00,,,0.05,0.000000,,2013-11-03 13:42:00,
2013-11-03 05:12:00,26.0,25.0,-100.00,ESE,111,0.0,0.0,95,0.01,,,0.06,0.000000,,2013-11-03 14:12:00,
2013-11-03 05:22:00,26.0,25.0,-100.00,ESE,111,0.0,0.0,95,0.01,,,0.06,0.000000,,2013-11-03 14:22:00,
2013-11-03 05:32:00,26.0,25.0,-100.00,ESE,111,0.0,0.0,95,0.01,,,0.06,0.000000,,2013-11-03 14:32:00,
2013-11-03 05:42:00,26.0,25.0,-100.00,ESE,111,0.0,0.0,95,0.01,,,0.06,0.000000,,2013-11-03 14:42:00,
2013-11-03 05:43:00,26.0,25.0,-100.00,ESE,114,0.0,0.0,95,0.01,,,0.07,0.000000,,2013-11-03 14:43:00,
2013-11-03 06:11:00,26.0,25.0,-100.00,ESE,114,0.0,0.0,95,0.01,,,0.07,0.000000,,2013-11-03 15:11:00,
2013-11-03 06:22:00,26.0,25.0,-100.00,ESE,114,0.0,0.0,95,0.01,,,0.07,0.000000,,2013-11-03 15:22:00,
2013-11-03 06:32:00,26.0,25.0,-100.00,ESE,114,0.0,0.0,95,0.01,,,0.07,0.000000,,2013-11-03 15:32:00,
2013-11-03 06:43:00,26.0,25.0,-100.00,ESE,117,0.0,0.0,95,0.00,,,0.07,0.000000,,2013-11-03 15:43:00,
2013-11-03 07:13:00,26.0,25.0,-100.00,ESE,117,0.0,0.0,95,0.00,,,0.07,0.000000,,2013-11-03 16:13:00,
2013-11-03 07:23:00,26.0,25.0,-100.00,ESE,117,0.0,0.0,95,0.00,,,0.07,0.000000,,2013-11-03 16:23:00,
2013-11-03 07:34:00,26.0,25.0,-100.00,ESE,117,0.0,0.0,95,0.00,,,0.07,0.000000,,2013-11-03 16:34:00,
2013-11-03 07:43:00,26.0,25.0,-100.00,ESE,114,0.0,0.0,95,0.01,,,0.06,0.000000,,2013-11-03 16:43:00,
2013-11-03 08:13:00,26.0,25.0,-100.00,ESE,114,0.0,0.0,95,0.01,,,0.06,0.000000,,2013-11-03 17:13:00,
2013-11-03 08:22:00,26.0,25.0,-100.00,ESE,114,0.0,0.0,95,0.01,,,0.06,0.000000,,2013-11-03 17:22:00,
2013-11-03 08:33:00,26.0,25.0,-100.00,ESE,114,0.0,0.0,95,0.01,,,0.06,0.000000,,2013-11-03 17:33:00,
2013-11-03 09:11:00,27.0,26.0,-100.00,ESE,116,0.0,0.0,96,0.01,,,0.06,1.500000,,2013-11-03 18:11:00,
2013-11-03 09:23:00,27.0,26.0,-100.00,ESE,116,0.0,0.0,96,0.01,,,0.06,1.500000,,2013-11-03 18:23:00,
2013-11-03 09:32:00,27.0,26.0,-100.00,ESE,116,0.0,0.0,96,0.01,,,0.06,1.500000,,2013-11-03 18:32:00,
2013-11-03 09:42:00,27.0,26.0,-100.00,ESE,116,0.0,0.0,96,0.01,,,0.06,1.500000,,2013-11-03 18:42:00,
2013-11-03 10:11:00,27.0,26.0,-100.00,SE,125,0.0,0.0,96,0.04,,,0.10,21.299999,,2013-11-03 19:11:00,
2013-11-03 10:21:00,27.0,26.0,-100.00,SE,125,0.0,0.0,96,0.04,,,0.10,21.299999,,2013-11-03 19:21:00,
2013-11-03 10:32:00,27.0,26.0,-100.00,SE,125,0.0,0.0,96,0.04,,,0.10,21.299999,,2013-11-03 19:32:00,
2013-11-03 10:41:00,27.0,26.0,-100.00,SE,125,0.0,0.0,96,0.04,,,0.10,21.299999,,2013-11-03 19:41:00,
2013-11-03 11:11:00,27.0,26.0,-100.00,ESE,117,0.0,0.0,95,0.00,,,0.10,71.900002,,2013-11-03 20:11:00,
2013-11-03 11:22:00,27.0,26.0,-100.00,ESE,117,0.0,0.0,95,0.00,,,0.10,71.900002,,2013-11-03 20:22:00,
2013-11-03 11:32:00,27.0,26.0,-100.00,ESE,117,0.0,0.0,95,0.00,,,0.10,71.900002,,2013-11-03 20:32:00,
2013-11-03 11:42:00,27.0,26.0,-100.00,ESE,117,0.0,0.0,95,0.00,,,0.10,71.900002,,2013-11-03 20:42:00,
2013-11-03 11:43:00,27.0,27.0,-100.00,ESE,114,0.0,0.0,96,0.00,,,0.10,77.000000,,2013-11-03 20:43:00,
2013-11-03 12:11:00,27.0,27.0,-100.00,ESE,114,0.0,0.0,96,0.00,,,0.10,77.000000,,2013-11-03 21:11:00,
2013-11-03 12:21:00,27.0,27.0,-100.00,ESE,114,0.0,0.0,96,0.00,,,0.10,77.000000,,2013-11-03 21:21:00,
2013-11-03 12:34:00,27.0,27.0,-100.00,ESE,114,0.0,0.0,96,0.00,,,0.10,77.000000,,2013-11-03 21:34:00,
2013-11-03 13:12:00,28.0,27.0,-100.00,ESE,111,0.0,0.0,96,0.00,,,0.10,113.400002,,2013-11-03 22:12:00,
2013-11-03 13:22:00,28.0,27.0,-100.00,ESE,111,0.0,0.0,96,0.00,,,0.10,113.400002,,2013-11-03 22:22:00,
2013-11-03 13:33:00,28.0,27.0,-100.00,ESE,111,0.0,0.0,96,0.00,,,0.10,113.400002,,2013-11-03 22:33:00,
2013-11-03 13:42:00,28.0,27.0,-100.00,ESE,111,0.0,0.0,96,0.00,,,0.10,113.400002,,2013-11-03 22:42:00,
2013-11-03 14:12:00,28.0,27.0,-100.00,ESE,111,0.0,0.0,96,0.00,,,0.10,126.300003,,2013-11-03 23:12:00,
2013-11-03 14:23:00,28.0,27.0,-100.00,ESE,111,0.0,0.0,96,0.00,,,0.10,126.300003,,2013-11-03 23:23:00,
2013-11-03 14:33:00,28.0,27.0,-100.00,ESE,111,0.0,0.0,96,0.00,,,0.10,126.300003,,2013-11-03 23:33:00,
2013-11-03 14:42:00,28.0,27.0,-100.00,ESE,111,0.0,0.0,96,0.00,,,0.10,126.300003,,2013-11-03 23:42:00,
2013-11-03 15:11:00,28.0,27.0,-100.00,ESE,112,0.0,0.0,96,0.00,,,0.10,111.099998,,2013-11-04 00:11:00,
2013-11-03 15:22:00,28.0,27.0,-100.00,ESE,112,0.0,0.0,96,0.00,,,0.10,111.099998,,2013-11-04 00:22:00,
2013-11-03 15:32:00,28.0,27.0,-100.00,ESE,112,0.0,0.0,96,0.00,,,0.10,111.099998,,2013-11-04 00:32:00,
2013-11-03 15:42:00,28.0,27.0,-100.00,ESE,112,0.0,0.0,96,0.00,,,0.10,111.099998,,2013-11-04 00:42:00,
2013-11-03 16:11:00,29.0,28.0,-100.00,ESE,110,0.0,0.0,96,0.04,,,0.14,71.699997,,2013-11-04 01:11:00,
2013-11-03 16:22:00,29.0,28.0,-100.00,ESE,110,0.0,0.0,96,0.04,,,0.14,71.699997,,2013-11-04 01:22:00,
2013-11-03 16:32:00,29.0,28.0,-100.00,ESE,110,0.0,0.0,96,0.04,,,0.14,71.699997,,2013-11-04 01:32:00,
2013-11-03 16:42:00,29.0,28.0,-100.00,ESE,110,0.0,0.0,96,0.04,,,0.14,71.699997,,2013-11-04 01:42:00,
2013-11-03 17:12:00,28.0,27.0,-100.00,ESE,114,0.0,0.0,96,0.01,,,0.15,25.500000,,2013-11-04 02:12:00,
2013-11-03 17:21:00,28.0,27.0,-100.00,ESE,114,0.0,0.0,96,0.01,,,0.15,25.500000,,2013-11-04 02:21:00,
2013-11-03 17:32:00,28.0,27.0,-100.00,ESE,114,0.0,0.0,96,0.01,,,0.15,25.500000,,2013-11-04 02:32:00,
2013-11-03 17:42:00,28.0,27.0,-100.00,ESE,114,0.0,0.0,96,0.01,,,0.15,25.500000,,2013-11-04 02:42:00,
2013-11-03 17:43:00,28.0,27.0,-100.00,ESE,110,0.0,0.0,97,0.02,,,0.17,1.600000,,2013-11-04 02:43:00,
2013-11-03 18:11:00,28.0,27.0,-100.00,ESE,110,0.0,0.0,97,0.02,,,0.17,1.600000,,2013-11-04 03:11:00,
2013-11-03 18:21:00,28.0,27.0,-100.00,ESE,110,0.0,0.0,97,0.02,,,0.17,1.600000,,2013-11-04 03:21:00,
2013-11-03 18:34:00,28.0,27.0,-100.00,ESE,110,0.0,0.0,97,0.02,,,0.17,1.600000,,2013-11-04 03:34:00,
2013-11-03 18:43:00,29.0,28.0,-100.00,ESE,112,0.0,0.0,97,0.01,,,0.18,0.000000,,2013-11-04 03:43:00,
2013-11-03 19:13:00,29.0,28.0,-100.00,ESE,112,0.0,0.0,97,0.01,,,0.18,0.000000,,2013-11-04 04:13:00,
2013-11-03 19:23:00,29.0,28.0,-100.00,ESE,112,0.0,0.0,97,0.01,,,0.18,0.000000,,2013-11-04 04:23:00,
2013-11-03 19:34:00,29.0,28.0,-100.00,ESE,112,0.0,0.0,97,0.01,,,0.18,0.000000,,2013-11-04 04:34:00,
2013-11-03 19:43:00,29.0,28.0,-100.00,ESE,108,0.0,0.0,97,0.01,,,0.19,0.000000,,2013-11-04 04:43:00,
2013-11-03 20:13:00,29.0,28.0,-100.00,ESE,108,0.0,0.0,97,0.01,,,0.19,0.000000,,2013-11-04 05:13:00,
2013-11-03 20:23:00,29.0,28.0,-100.00,ESE,108,0.0,0.0,97,0.01,,,0.19,0.000000,,2013-11-04 05:23:00,
2013-11-03 20:34:00,29.0,28.0,-100.00,ESE,108,0.0,0.0,97,0.01,,,0.19,0.000000,,2013-11-04 05:34:00,
2013-11-03 21:12:00,29.0,28.0,-100.00,ESE,110,0.0,0.0,97,0.00,,,0.19,0.000000,,2013-11-04 06:12:00,
2013-11-03 21:23:00,29.0,28.0,-100.00,ESE,110,0.0,0.0,97,0.00,,,0.19,0.000000,,2013-11-04 06:23:00,
2013-11-03 21:32:00,29.0,28.0,-100.00,ESE,110,0.0,0.0,97,0.00,,,0.19,0.000000,,2013-11-04 06:32:00,
2013-11-03 21:42:00,29.0,28.0,-100.00,ESE,110,0.0,0.0,97,0.00,,,0.19,0.000000,,2013-11-04 06:42:00,
2013-11-03 22:11:00,29.0,28.0,-100.00,ESE,110,0.0,0.0,97,0.00,,,0.19,0.000000,,2013-11-04 07:11:00,
2013-11-03 22:21:00,29.0,28.0,-100.00,ESE,110,0.0,0.0,97,0.00,,,0.19,0.000000,,2013-11-04 07:21:00,
2013-11-03 22:32:00,29.0,28.0,-100.00,ESE,110,0.0,0.0,97,0.00,,,0.19,0.000000,,2013-11-04 07:32:00,
2013-11-03 22:42:00,29.0,28.0,-100.00,ESE,110,0.0,0.0,97,0.00,,,0.19,0.000000,,2013-11-04 07:42:00,
2013-11-03 23:12:00,29.0,28.0,-100.00,ESE,105,0.0,0.0,97,0.01,,,0.20,0.000000,,2013-11-04 08:12:00,
2013-11-03 23:21:00,29.0,28.0,-100.00,ESE,105,0.0,0.0,97,0.01,,,0.20,0.000000,,2013-11-04 08:21:00,
2013-11-03 23:32:00,29.0,28.0,-100.00,ESE,105,0.0,0.0,97,0.01,,,0.20,0.000000,,2013-11-04 08:32:00,
2013-11-03 23:42:00,29.0,28.0,-100.00,ESE,105,0.0,0.0,97,0.01,,,0.20,0.000000,,2013-11-04 08:42:00,